Searsport Weather Center

Moon Phase Calendar



Online Cameras

 


      

Current Conditions in Belfast
12/1/2020 12:21:24 PM

57°F
Feels Like 49
Rain
Humidity
95%
Pressure
29.59"
Wind
18 mph (SE)
Dew Point
56°F
UV Index
0/10 (Low)
Visibility
2 mi

Hourly Forecast

Date & Time Tue, Dec 1
12:00 PM
Tue, Dec 1
1:00 PM
Tue, Dec 1
2:00 PM
Tue, Dec 1
3:00 PM
Tue, Dec 1
4:00 PM
Tue, Dec 1
5:00 PM
Tue, Dec 1
6:00 PM
Tue, Dec 1
7:00 PM
Tue, Dec 1
8:00 PM
Tue, Dec 1
9:00 PM
Tue, Dec 1
10:00 PM
Tue, Dec 1
11:00 PM
Wed, Dec 2
12:00 AM
Wed, Dec 2
1:00 AM
Wed, Dec 2
2:00 AM
Wed, Dec 2
3:00 AM
Wed, Dec 2
4:00 AM
Wed, Dec 2
5:00 AM
Wed, Dec 2
6:00 AM
Wed, Dec 2
7:00 AM
Wed, Dec 2
8:00 AM
Wed, Dec 2
9:00 AM
Wed, Dec 2
10:00 AM
Wed, Dec 2
11:00 AM
Wed, Dec 2
12:00 PM
Wed, Dec 2
1:00 PM
Wed, Dec 2
2:00 PM
Wed, Dec 2
3:00 PM
Wed, Dec 2
4:00 PM
Wed, Dec 2
5:00 PM
Wed, Dec 2
6:00 PM
Wed, Dec 2
7:00 PM
Wed, Dec 2
8:00 PM
Wed, Dec 2
9:00 PM
Wed, Dec 2
10:00 PM
Wed, Dec 2
11:00 PM
Thu, Dec 3
12:00 AM
Thu, Dec 3
1:00 AM
Thu, Dec 3
2:00 AM
Thu, Dec 3
3:00 AM
Thu, Dec 3
4:00 AM
Thu, Dec 3
5:00 AM
Thu, Dec 3
6:00 AM
Thu, Dec 3
7:00 AM
Thu, Dec 3
8:00 AM
Thu, Dec 3
9:00 AM
Thu, Dec 3
10:00 AM
Thu, Dec 3
11:00 AM
Condition
Rain

Rain

Rain

Rain

Rain

Rain

Clouds

Clouds

Clouds

Clouds

Clouds

Clouds

Clouds

Clouds

Clouds

Clouds

Clouds

Clouds

Clouds

Clouds

Clear

Clouds

Clouds

Clouds

Clouds

Clouds

Clouds

Clouds

Clouds

Clouds

Clouds

Clouds

Clouds

Clouds

Clouds

Clouds

Clouds

Clouds

Clear

Clear

Clear

Clear

Clear

Clear

Clear

Clear

Clear

Clear
Temperature 57°F57°F57°F56°F55°F54°F54°F53°F50°F49°F48°F47°F47°F45°F44°F43°F42°F42°F42°F41°F42°F43°F44°F44°F44°F44°F43°F42°F39°F39°F39°F38°F39°F39°F38°F37°F35°F33°F33°F33°F32°F32°F32°F32°F34°F36°F38°F39°F
Feels Like 47°F49°F51°F54°F50°F50°F47°F43°F41°F40°F39°F39°F37°F36°F34°F34°F33°F33°F32°F32°F32°F32°F32°F32°F32°F32°F31°F30°F28°F29°F29°F30°F30°F29°F28°F27°F24°F23°F24°F23°F23°F22°F23°F24°F24°F26°F28°F30°F
Cloudiness 100%100%100%100%100%100%100%100%19%59%72%79%84%84%77%85%78%81%77%72%10%18%40%51%57%63%100%100%100%98%98%97%100%100%100%99%90%78%0%4%4%3%2%2%0%0%0%0%
Visibility 2 mi1 mi1 mi5 mi3 mi6 mi6 mi6 mi6 mi6 mi6 mi6 mi6 mi6 mi6 mi6 mi6 mi6 mi6 mi6 mi6 mi6 mi6 mi6 mi6 mi6 mi6 mi6 mi6 mi6 mi6 mi6 mi6 mi6 mi6 mi6 mi6 mi6 mi6 mi6 mi6 mi6 mi6 mi6 mi6 mi6 mi6 mi6 mi
Precipitation 93%100%100%100%100%100%80%80%1%0%0%0%0%0%0%0%0%0%0%0%0%0%0%0%0%0%10%19%18%15%14%9%2%6%15%0%0%0%0%0%0%0%0%0%0%0%0%0%
Humidity 95%95%95%96%93%91%88%78%75%75%75%77%76%75%75%76%74%73%73%74%72%66%65%64%65%66%68%67%77%75%75%75%75%76%79%80%84%90%91%89%90%89%89%89%84%76%70%66%
Dew Point 56°F56°F55°F55°F53°F52°F50°F46°F42°F42°F40°F41°F40°F38°F37°F36°F35°F34°F34°F34°F34°F33°F33°F33°F33°F33°F33°F32°F33°F32°F31°F30°F30°F31°F31°F29°F27°F27°F26°F23°F22°F22°F22°F22°F22°F21°F20°F20°F
Pressure 29.59"29.56"29.53"29.53"29.56"29.56"29.59"29.62"29.65"29.68"29.68"29.71"29.74"29.77"29.77"29.77"29.8"29.8"29.8"29.83"29.85"29.85"29.85"29.83"29.83"29.83"29.8"29.8"29.83"29.83"29.83"29.85"29.85"29.85"29.85"29.85"29.85"29.85"29.88"29.88"29.91"29.94"29.97"30"30"30.03"30.03"30.03"
Wind Speed 21.6 mph18.7 mph12.6 mph6.6 mph11.4 mph9.1 mph11.7 mph14.8 mph11.7 mph11.3 mph11 mph11.4 mph13.1 mph12.2 mph12 mph10.2 mph11.1 mph11 mph11.3 mph10.7 mph11 mph14 mph15.8 mph16.2 mph15 mph15.4 mph14.7 mph14.4 mph13.8 mph11.8 mph11.2 mph9.3 mph8.7 mph10.2 mph10.3 mph10.8 mph12 mph11.4 mph9.2 mph9.8 mph9.3 mph10.6 mph9.4 mph8.3 mph10.3 mph11 mph10.1 mph9.5 mph
Wind
Direction
160°
SSE
164°
SSE
187°
S
180°
S
192°
SSW
190°
S
196°
SSW
202°
SSW
200°
SSW
202°
SSW
190°
S
188°
S
196°
SSW
201°
SSW
211°
SSW
205°
SSW
205°
SSW
206°
SSW
210°
SSW
204°
SSW
206°
SSW
206°
SSW
205°
SSW
206°
SSW
204°
SSW
199°
SSW
201°
SSW
209°
SSW
216°
SW
219°
SW
222°
SW
220°
SW
215°
SW
231°
SW
235°
SW
229°
SW
242°
WSW
253°
WSW
268°
W
277°
W
278°
W
269°
W
262°
W
257°
WSW
262°
W
267°
W
261°
W
256°
WSW

Daily Forecast

Date High Low Precip. Humidity
Today
Dec 1

Rain
59 °F
47 °F
100%
95%
Wednesday
Dec 2

Clouds
47 °F
37 °F
19%
64%
Thursday
Dec 3

Clear
42 °F
32 °F
0%
70%
Friday
Dec 4

Clouds
45 °F
37 °F
0%
63%
Saturday
Dec 5

Clear
41 °F
34 °F
0%
70%
Sunday
Dec 6

Rain
45 °F
35 °F
100%
92%
Monday
Dec 7

Rain
42 °F
31 °F
100%
79%
Tuesday
Dec 8

Clouds
33 °F
25 °F
0%
89%
Wednesday
Dec 9

Clouds
36 °F
23 °F
0%
85%
Thursday
Dec 10

Clouds
41 °F
33 °F
3%
84%
Friday
Dec 11

Rain
43 °F
35 °F
21%
68%
Saturday
Dec 12

Clouds
37 °F
23 °F
4%
78%
Sunday
Dec 13

Snow
27 °F
19 °F
20%
76%
Monday
Dec 14

Snow
35 °F
28 °F
71%
84%
Tuesday
Dec 15

Snow
35 °F
23 °F
100%
93%
Wednesday
Dec 16

Snow
18 °F
10 °F
93%
84%


Temperature 8-14 Day Outlook



Precipitation 8-14 Day Outlook




Quick Links
Searsport News
Searsport Photos
Searsport Videos




About Us
Contact Us
Site Map
Search Site
Advertise With Us
   
Searsport.USCoast.info
THE SEARSPORT WEBSITE

Copyright 2020, Coastal Town
Privacy    |    Legal